Lid_Strength_Index
12 11 12 13 12 11 12 11 15 12 12 11 10 10 9 8 7 7 7 6 5 5 5 4 4 4 3 2 2 1 2 2 2 1 1 1 1 1 0 1 2 2 2 3
13 11 11 13 12 11 10 10 10 13 13 10 9 8 8 8 7 7 7 6 5 5 4 5 4 4 3 3 2 2 2 2 2 2 2 2 2 2 2 3 3 3 4 5
16 11 13 16 12 12 10 9 12 15 12 9 10 10 9 8 8 7 7 6 6 5 5 5 4 4 4 4 3 3 4 4 3 3 3 3 3 4 4 4 4 4 5 6
16 15 21 12 8 8 9 10 10 10 10 9 9 8 7 6 7 7 8 7 7 6 6 5 4 5 5 4 5 5 5 5 4 4 4 4 5 5 5 4 5 5 6 7
18 18 15 12 9 9 10 13 9 10 9 9 8 8 8 7 7 7 8 7 7 6 6 6 6 5 5 6 6 6 6 5 5 5 5 6 6 6 6 6 6 6 5 6
16 19 21 15 10 7 7 16 9 9 9 9 8 13 10 7 7 8 7 7 7 7 6 6 6 6 7 7 6 6 6 6 5 5 5 6 6 6 5 5 5 5 6 5
16 17 16 11 9 7 14 15 9 8 8 8 10 9 8 7 7 7 7 6 6 6 6 7 6 6 7 7 7 7 7 6 6 6 6 5 5 5 4 4 5 5 6 5
16 18 19 8 9 13 10 8 8 8 8 9 10 9 9 9 9 8 8 8 7 7 7 6 6 6 7 7 6 6 6 6 5 5 6 5 5 5 6 6 3 4 4 5
14 15 10 8 8 7 7 7 8 9 10 10 11 10 10 10 10 9 8 8 7 8 7 7 7 6 7 7 7 5 5 5 5 5 5 5 7 9 9 8 8 8 8 8
12 11 10 8 7 6 6 6 8 8 9 10 11 11 11 11 10 9 9 8 7 7 8 8 8 7 7 5 5 5 5 5 5 6 6 6 7 9 10 11 10 11 11 11
13 11 9 8 9 8 8 8 9 10 10 11 12 12 11 12 11 10 10 9 8 9 9 9 6 6 5 5 5 5 4 4 5 5 5 7 9 9 11 13 13 13 12 12
14 11 12 11 9 9 9 10 10 11 11 11 11 12 12 12 11 10 9 8 9 9 7 7 6 6 5 4 4 4 5 5 5 5 5 7 9 12 12 12 13 13 13 12
12 11 11 11 10 9 11 11 10 10 10 11 10 11 11 11 10 9 9 9 8 8 7 7 6 6 6 5 4 4 5 5 6 6 6 7 7 9 12 13 13 13 12 12
10 11 12 11 13 11 11 10 9 10 10 10 10 9 9 9 8 9 8 8 7 7 7 6 7 7 6 6 6 6 6 8 6 6 7 8 8 8 8 9 11 11 12 12
11 11 11 10 10 11 10 11 11 11 10 10 9 8 8 8 8 7 7 6 6 7 7 7 7 7 6 6 6 6 6 7 7 7 8 8 7 8 8 8 8 9 10 10
9 10 10 11 10 10 10 10 11 10 9 8 8 8 7 7 7 7 7 7 7 8 7 7 7 7 7 7 7 7 8 9 8 7 7 8 8 8 8 8 8 9 10 10
9 9 8 9 9 9 9 8 9 9 9 8 7 7 7 7 7 7 7 7 7 7 7 7 7 7 7 6 6 7 7 7 9 8 8 8 8 8 8 8 9 9 9 10
9 8 8 8 8 8 8 8 8 8 8 7 6 7 7 8 8 8 8 7 8 8 7 7 7 7 7 7 6 7 7 8 8 9 9 9 8 8 8 8 9 9 9 9
8 9 9 9 8 8 8 8 8 7 7 7 7 7 7 7 7 8 8 9 9 10 9 8 8 8 7 8 7 7 7 8 8 8 8 9 8 8 9 9 9 9 9 9
7 7 8 8 8 8 8 7 7 7 7 7 7 7 7 7 7 7 8 8 8 8 7 7 7 7 6 7 8 7 8 8 9 9 9 9 9 9 9 10 9 9 9 9
6 6 7 7 7 7 7 7 7 7 7 7 7 7 7 6 6 7 8 10 8 7 7 8 7 7 7 9 7 7 8 8 9 9 9 9 9 9 9 9 9 9 9 9
6 6 7 6 7 7 7 7 7 7 7 7 7 7 7 7 7 7 7 8 8 10 7 7 8 11 10 11 7 8 8 8 8 8 9 9 9 9 9 10 9 9 9 9
6 6 6 6 6 6 6 6 7 7 7 7 7 7 7 7 7 8 9 7 6 7 7 8 11 12 12 7 7 8 8 8 8 9 8 8 8 8 9 10 9 9 9 10
4 5 5 5 5 6 7 6 6 6 7 6 6 6 6 7 7 6 6 9 9 7 8 9 10 12 13 7 7 8 8 8 8 8 8 11 7 8 8 9 9 9 10 9
3 4 5 5 5 6 6 6 6 6 7 7 6 6 5 5 6 6 6 7 10 8 8 12 12 11 8 7 7 8 8 9 9 8 7 7 8 8 7 8 8 9 9 9
3 4 4 4 5 5 5 6 7 6 6 7 6 6 5 5 6 6 7 7 6 8 8 9 8 7 6 7 8 8 8 9 9 8 9 7 8 8 8 7 8 8 8 8
2 5 4 4 4 4 5 5 6 6 6 6 6 5 5 6 6 6 7 6 7 6 6 7 7 8 7 7 7 8 8 7 9 8 8 7 7 7 7 8 7 8 8 8